Ironwood, MI

5:51 AM CDT on April 20, 2018 (GMT -0500)
Gogebic-Iron County

Weather History for KIWD - August, 2012

Change the Weather History Date:

Tuesday, August 14, 2012

  Actual Average Record
Temperature  
Mean Temperature 60 °F -  
Max Temperature 73 °F 72 °F 86 °F (2015)
Min Temperature 48 °F 52 °F 35 °F (2004)
Degree Days  
Heating Degree Days 4    
Growing Degree Days 10 (Base 50)    
Moisture  
Dew Point 48 °F    
Average Humidity 68    
Maximum Humidity 88    
Minimum Humidity 41    
Precipitation  
Precipitation 0.00 in - - ()
Sea Level Pressure  
Sea Level Pressure 29.93 in    
Wind  
Wind Speed 3 mph (WNW)    
Max Wind Speed 8 mph    
Max Gust Speed -    
Visibility 8 miles    
Events      
Averages and records for this station are not official NWS values.
T = Trace of Precipitation, MM = Missing Value Source: NWS Daily Summary

Daily Weather History Graph

Daily Weather History Graph

Search for Another Location

Airport or City:

Astronomy

Aug. 14, 2012 Rise Set
Actual Time 5:58 AM CDT 8:11 PM CDT
Civil Twilight 5:25 AM CDT 8:44 PM CDT
Nautical Twilight 4:43 AM CDT 9:24 PM CDT
Astronomical Twilight 3:57 AM CDT 10:10 PM CDT
Moon 2:50 AM CDT (8/14) 6:09 PM CDT (8/14)
Length of Visible Light 15h 19m
Length of Day
14h 12m
Waning Crescent, 9% of the Moon is Illuminated
Aug 14
Waning Crescent
Aug 17
New
Aug 24
First Quarter
Aug 31
Full
Sep 8
Last Quarter

Hourly Weather History & Observations

Time (CDT) Temp. Dew Point Humidity Pressure Visibility Wind Dir Wind Speed Gust Speed Precip Events Conditions
12:15 AM 55.4 °F 50.0 °F 82% 29.94 in 10.0 mi Calm Calm - N/A   Mostly Cloudy
12:35 AM 53.6 °F 48.2 °F 82% 29.94 in 10.0 mi WSW 3.5 mph - N/A   Mostly Cloudy
12:55 AM 53.6 °F 50.0 °F 88% 29.94 in 10.0 mi Calm Calm - N/A   Mostly Cloudy
1:15 AM 51.8 °F 46.4 °F 82% 29.94 in 5.0 mi West 3.5 mph - N/A   Partly Cloudy
1:35 AM 51.8 °F 48.2 °F 88% 29.94 in 10.0 mi West 3.5 mph - N/A   Mostly Cloudy
1:55 AM 51.8 °F 48.2 °F 88% 29.94 in 10.0 mi West 3.5 mph - N/A   Mostly Cloudy
2:15 AM 53.6 °F 48.2 °F 82% 29.94 in 10.0 mi West 3.5 mph - N/A   Mostly Cloudy
2:35 AM 53.6 °F 48.2 °F 82% 29.94 in 10.0 mi West 4.6 mph - N/A   Mostly Cloudy
2:55 AM 53.6 °F 48.2 °F 82% 29.94 in 10.0 mi West 3.5 mph - N/A   Mostly Cloudy
3:15 AM 53.6 °F 48.2 °F 82% 29.94 in 10.0 mi West 3.5 mph - N/A   Scattered Clouds
3:35 AM 51.8 °F 48.2 °F 88% 29.94 in 10.0 mi West 3.5 mph - N/A   Partly Cloudy
3:55 AM 51.8 °F 46.4 °F 82% 29.94 in 1.8 mi West 3.5 mph - N/A   Scattered Clouds
4:15 AM 50.0 °F 46.4 °F 87% 29.94 in 2.5 mi Calm Calm - N/A   Partly Cloudy
4:35 AM 51.8 °F 46.4 °F 82% 29.94 in 10.0 mi Calm Calm - N/A   Mostly Cloudy
4:55 AM 50.0 °F 46.4 °F 87% 29.94 in 10.0 mi Calm Calm - N/A   Mostly Cloudy
5:15 AM 50.0 °F 44.6 °F 82% 29.94 in 10.0 mi Calm Calm - N/A   Partly Cloudy
5:35 AM 48.2 °F 44.6 °F 87% 29.94 in 3.0 mi Calm Calm - N/A   Scattered Clouds
5:55 AM 48.2 °F 44.6 °F 87% 29.95 in 1.5 mi Calm Calm - N/A   Scattered Clouds
6:15 AM 48.2 °F 44.6 °F 87% 29.95 in 0.8 mi Calm Calm - N/A   Unknown
6:35 AM 48.2 °F 44.6 °F 87% 29.94 in 0.2 mi Calm Calm - N/A   Unknown
6:55 AM 48.2 °F 44.6 °F 87% 29.95 in 1.8 mi Calm Calm - N/A   Clear
7:15 AM 50.0 °F 46.4 °F 87% 29.95 in 10.0 mi Calm Calm - N/A   Clear
7:35 AM 51.8 °F 46.4 °F 82% 29.95 in 10.0 mi Calm Calm - N/A   Clear
7:55 AM 53.6 °F 50.0 °F 88% 29.95 in 10.0 mi Calm Calm - N/A   Clear
8:15 AM 57.2 °F 51.8 °F 82% 29.95 in 10.0 mi Calm Calm - N/A   Clear
8:35 AM 60.8 °F 51.8 °F 72% 29.95 in 10.0 mi West 3.5 mph - N/A   Clear
8:55 AM 62.6 °F 51.8 °F 68% 29.95 in 10.0 mi West 6.9 mph - N/A   Clear
9:15 AM 62.6 °F 53.6 °F 72% 29.95 in 10.0 mi West 5.8 mph - N/A   Clear
9:35 AM 64.4 °F 53.6 °F 68% 29.95 in 10.0 mi WSW 3.5 mph - N/A   Clear
11:15 AM 69.8 °F 48.2 °F 46% 29.93 in 10.0 mi NW 5.8 mph - N/A   Partly Cloudy
11:55 AM 71.6 °F 48.2 °F 43% 29.93 in 2.0 mi NW 8.1 mph - N/A   Scattered Clouds
12:15 PM 69.8 °F 50.0 °F 49% 29.93 in 10.0 mi NW 6.9 mph - N/A   Mostly Cloudy
12:35 PM 69.8 °F 50.0 °F 49% 29.92 in 9.0 mi North 3.5 mph - N/A   Scattered Clouds
12:55 PM 71.6 °F 50.0 °F 46% 29.92 in 10.0 mi NNW 6.9 mph - N/A   Mostly Cloudy
1:15 PM 69.8 °F 48.2 °F 46% 29.92 in 10.0 mi NW 6.9 mph - N/A   Overcast
1:35 PM 71.6 °F 48.2 °F 43% 29.92 in 10.0 mi WNW 4.6 mph - N/A   Scattered Clouds
1:55 PM 71.6 °F 46.4 °F 41% 29.92 in 10.0 mi Calm Calm - N/A   Clear
2:15 PM 71.6 °F 48.2 °F 43% 29.91 in 10.0 mi NNE 4.6 mph - N/A   Clear
2:35 PM 73.4 °F 48.2 °F 41% 29.91 in 10.0 mi NW 6.9 mph - N/A   Clear
2:55 PM 71.6 °F 46.4 °F 41% 29.90 in 9.0 mi WNW 6.9 mph - N/A   Clear
3:15 PM 71.6 °F 48.2 °F 43% 29.90 in 10.0 mi NNW 6.9 mph - N/A   Clear
3:35 PM 69.8 °F 48.2 °F 46% 29.90 in 10.0 mi NNW 6.9 mph - N/A   Partly Cloudy
3:55 PM 69.8 °F 48.2 °F 46% 29.90 in 10.0 mi NW 6.9 mph - N/A   Clear
4:15 PM 69.8 °F 48.2 °F 46% 29.90 in 10.0 mi NW 6.9 mph - N/A   Clear
4:35 PM 69.8 °F 50.0 °F 49% 29.90 in 10.0 mi NNW 3.5 mph - N/A   Clear
4:55 PM 69.8 °F 50.0 °F 49% 29.90 in 10.0 mi NNW 3.5 mph - N/A   Clear
5:15 PM 69.8 °F 50.0 °F 49% 29.90 in 10.0 mi WNW 3.5 mph - N/A   Clear